No particular awareness of the weather is required.    There are no Weather-warnings


Meteo18 Weather Cam more information Meteo18 Weather Cam


Thunder radar more information blitzortung!


Rain radar more information rain snow radar


Visit our other weather sites:

Template documentation
and downloads

And another site



Weather Underground History page Text

Daily Summary for November 20, 2016 Units:  Metric    English   Both
« Previous Day
Next Day »
Daily Weekly Monthly Yearly Custom
  High: Low: Average:
Temperature: 15.3 °C 6.5 °C 11.8 °C
Dew Point: 10.3 °C 3.2 °C 7.2 °C
Humidity: 92 % 64 % 74 %
Wind Speed: 33.8 km/h 1.6 km/h 12.6 km/h
Wind Gust: 41.8 km/h - -
Wind:- - South
Pressure: 1003.9 hPa 999.2 hPa -
Precipitation: 2.3 mm    
Historical Graphs
 
 
Tabular Data for November 20, 2016
Time Temperature Dew Point Pressure Wind Wind Speed Wind Gust Humidity Rainfall Rate (Hourly)
00:02 6.6 °C 3.4 °C 1003.9 hPa SE 9.7 km/h 20.9 km/h 80 % 0.0 mm
00:07 6.6 °C 3.2 °C 1003.6 hPa SE 16.1 km/h 20.9 km/h 79 % 0.0 mm
00:12 6.5 °C 3.3 °C 1003.6 hPa SSW 9.7 km/h 20.9 km/h 80 % 0.0 mm
00:17 6.6 °C 3.2 °C 1003.6 hPa ESE 9.7 km/h 20.9 km/h 79 % 0.0 mm
00:22 6.6 °C 3.4 °C 1003.6 hPa South 12.9 km/h 19.3 km/h 80 % 0.0 mm
00:27 6.6 °C 3.4 °C 1003.6 hPa SSE 9.7 km/h 19.3 km/h 80 % 0.0 mm
00:32 6.6 °C 3.4 °C 1003.3 hPa SSE 4.8 km/h 17.7 km/h 80 % 0.0 mm
00:37 6.6 °C 3.4 °C 1003.3 hPa South 6.4 km/h 17.7 km/h 80 % 0.0 mm
00:42 6.6 °C 3.4 °C 1003.6 hPa SSE 4.8 km/h 16.1 km/h 80 % 0.0 mm
00:47 6.6 °C 3.4 °C 1003.3 hPa SSE 11.3 km/h 17.7 km/h 80 % 0.0 mm
00:52 6.7 °C 3.5 °C 1002.9 hPa SE 8.0 km/h 17.7 km/h 80 % 0.0 mm
01:02 6.7 °C 3.3 °C 1002.9 hPa SSW 9.7 km/h 17.7 km/h 79 % 0.0 mm
01:07 6.7 °C 3.5 °C 1002.9 hPa South 9.7 km/h 19.3 km/h 80 % 0.0 mm
01:12 6.8 °C 3.4 °C 1002.9 hPa SE 8.0 km/h 19.3 km/h 79 % 0.0 mm
01:22 6.8 °C 3.4 °C 1002.6 hPa South 4.8 km/h 19.3 km/h 79 % 0.0 mm
01:27 6.9 °C 3.5 °C 1002.6 hPa SE 1.6 km/h 16.1 km/h 79 % 0.0 mm
01:32 6.9 °C 3.3 °C 1002.6 hPa SE 11.3 km/h 16.1 km/h 78 % 0.0 mm
01:42 7.1 °C 3.3 °C 1002.3 hPa SE 6.4 km/h 14.5 km/h 77 % 0.0 mm
01:47 7.2 °C 3.4 °C 1002.3 hPa SSW 8.0 km/h 16.1 km/h 77 % 0.0 mm
01:52 7.3 °C 3.3 °C 1002.3 hPa South 3.2 km/h 16.1 km/h 76 % 0.0 mm
01:57 7.3 °C 3.5 °C 1002.3 hPa South 6.4 km/h 16.1 km/h 77 % 0.0 mm
02:02 7.3 °C 3.5 °C 1001.9 hPa SSE 8.0 km/h 16.1 km/h 77 % 0.0 mm
02:07 7.3 °C 3.5 °C 1001.9 hPa South 4.8 km/h 16.1 km/h 77 % 0.0 mm
02:12 7.3 °C 3.5 °C 1001.6 hPa SSW 1.6 km/h 16.1 km/h 77 % 0.0 mm
02:17 7.3 °C 3.3 °C 1001.6 hPa SSE 6.4 km/h 12.9 km/h 76 % 0.0 mm
02:22 7.3 °C 3.3 °C 1001.6 hPa SSE 9.7 km/h 12.9 km/h 76 % 0.0 mm
02:27 7.3 °C 3.3 °C 1001.2 hPa SE 4.8 km/h 14.5 km/h 76 % 0.0 mm
02:32 7.3 °C 3.3 °C 1001.2 hPa ESE 6.4 km/h 14.5 km/h 76 % 0.0 mm
02:37 7.3 °C 3.3 °C 1001.2 hPa SE 8.0 km/h 16.1 km/h 76 % 0.0 mm
02:42 7.2 °C 3.3 °C 1001.2 hPa South 4.8 km/h 16.1 km/h 76 % 0.0 mm
02:47 7.1 °C 3.2 °C 1001.2 hPa SSE 8.0 km/h 16.1 km/h 76 % 0.0 mm
02:52 7.2 °C 3.3 °C 1001.2 hPa South 11.3 km/h 16.1 km/h 76 % 0.0 mm
02:57 7.4 °C 3.4 °C 1001.2 hPa SSE 11.3 km/h 16.1 km/h 76 % 0.0 mm
03:02 7.6 °C 3.5 °C 1000.9 hPa SE 9.7 km/h 16.1 km/h 75 % 0.0 mm
03:07 7.7 °C 3.5 °C 1000.6 hPa SE 6.4 km/h 19.3 km/h 75 % 0.0 mm
03:12 7.7 °C 3.5 °C 1000.6 hPa South 16.1 km/h 19.3 km/h 75 % 0.0 mm
03:17 7.9 °C 3.6 °C 1000.6 hPa South 12.9 km/h 24.1 km/h 74 % 0.0 mm
03:22 8.1 °C 3.7 °C 1000.6 hPa SSE 17.7 km/h 24.1 km/h 74 % 0.0 mm
03:27 8.3 °C 3.7 °C 1000.6 hPa South 22.5 km/h 24.1 km/h 73 % 0.0 mm
03:32 8.3 °C 3.7 °C 1000.2 hPa SSE 6.4 km/h 24.1 km/h 73 % 0.0 mm
03:37 8.4 °C 3.8 °C 1000.2 hPa South 12.9 km/h 22.5 km/h 73 % 0.0 mm
03:47 8.5 °C 3.9 °C 1000.2 hPa SSW 4.8 km/h 24.1 km/h 73 % 0.0 mm
03:57 8.6 °C 4.2 °C 999.9 hPa SW 12.9 km/h 22.5 km/h 74 % 0.0 mm
04:02 8.7 °C 4.1 °C 999.9 hPa SSE 8.0 km/h 22.5 km/h 73 % 0.0 mm
04:12 9.2 °C 4.4 °C 999.9 hPa SSW 16.1 km/h 22.5 km/h 72 % 0.0 mm
04:17 9.4 °C 4.4 °C 999.5 hPa South 12.9 km/h 27.4 km/h 71 % 0.0 mm
04:22 9.6 °C 4.6 °C 999.5 hPa South 11.3 km/h 27.4 km/h 71 % 0.0 mm
04:32 10.2 °C 4.8 °C 999.5 hPa South 17.7 km/h 29.0 km/h 69 % 0.0 mm
04:37 10.4 °C 4.7 °C 999.5 hPa South 17.7 km/h 32.2 km/h 68 % 0.0 mm
04:42 10.6 °C 4.9 °C 999.5 hPa South 27.4 km/h 32.2 km/h 68 % 0.0 mm
04:57 10.9 °C 5.0 °C 999.5 hPa SSW 16.1 km/h 37.0 km/h 67 % 0.0 mm
05:02 10.9 °C 5.0 °C 999.5 hPa SSE 25.7 km/h 37.0 km/h 67 % 0.0 mm
05:12 11.0 °C 5.3 °C 999.5 hPa South 24.1 km/h 38.6 km/h 68 % 0.0 mm
05:17 11.1 °C 5.2 °C 999.2 hPa SW 27.4 km/h 38.6 km/h 67 % 0.0 mm
05:22 11.1 °C 5.2 °C 999.5 hPa South 14.5 km/h 38.6 km/h 67 % 0.0 mm
05:32 11.2 °C 5.5 °C 999.2 hPa South 25.7 km/h 35.4 km/h 68 % 0.0 mm
05:37 11.2 °C 5.5 °C 999.2 hPa SSW 19.3 km/h 33.8 km/h 68 % 0.0 mm
05:52 11.2 °C 5.7 °C 999.2 hPa SSW 24.1 km/h 37.0 km/h 69 % 0.0 mm
06:02 11.3 °C 5.8 °C 999.2 hPa SSW 25.7 km/h 37.0 km/h 69 % 0.0 mm
06:07 11.3 °C 5.8 °C 999.2 hPa South 25.7 km/h 38.6 km/h 69 % 0.0 mm
06:12 11.3 °C 6.0 °C 999.2 hPa SSW 29.0 km/h 38.6 km/h 70 % 0.0 mm
06:17 11.3 °C 6.0 °C 999.2 hPa SSW 22.5 km/h 40.2 km/h 70 % 0.0 mm
06:22 11.4 °C 6.1 °C 999.2 hPa SSW 29.0 km/h 40.2 km/h 70 % 0.0 mm
06:27 11.4 °C 6.1 °C 999.5 hPa SSW 20.9 km/h 41.8 km/h 70 % 0.0 mm
06:32 11.4 °C 6.1 °C 999.5 hPa SW 17.7 km/h 41.8 km/h 70 % 0.0 mm
06:37 11.5 °C 6.2 °C 999.5 hPa SSW 16.1 km/h 35.4 km/h 70 % 0.0 mm
06:42 11.4 °C 6.3 °C 999.5 hPa SSW 16.1 km/h 35.4 km/h 71 % 0.0 mm
06:47 11.4 °C 6.3 °C 999.5 hPa SSW 19.3 km/h 37.0 km/h 71 % 0.0 mm
06:57 11.6 °C 6.3 °C 999.5 hPa South 24.1 km/h 35.4 km/h 70 % 0.0 mm
07:02 11.6 °C 6.3 °C 999.5 hPa SSW 20.9 km/h 35.4 km/h 70 % 0.0 mm
07:07 11.6 °C 6.3 °C 999.5 hPa SSW 24.1 km/h 37.0 km/h 70 % 0.0 mm
07:12 11.6 °C 6.3 °C 999.9 hPa SW 20.9 km/h 37.0 km/h 70 % 0.0 mm
07:17 11.6 °C 6.5 °C 999.9 hPa SSW 19.3 km/h 37.0 km/h 71 % 0.0 mm
07:22 11.6 °C 6.5 °C 999.9 hPa SW 19.3 km/h 35.4 km/h 71 % 0.0 mm
07:27 11.5 °C 6.4 °C 999.9 hPa South 17.7 km/h 35.4 km/h 71 % 0.0 mm
07:42 11.6 °C 6.5 °C 999.9 hPa SSW 16.1 km/h 38.6 km/h 71 % 0.0 mm
07:47 11.6 °C 6.7 °C 999.9 hPa South 22.5 km/h 38.6 km/h 72 % 0.0 mm
07:52 11.6 °C 6.5 °C 999.9 hPa SSW 20.9 km/h 38.6 km/h 71 % 0.0 mm
07:57 11.6 °C 6.7 °C 1000.2 hPa SSW 22.5 km/h 38.6 km/h 72 % 0.0 mm
08:02 11.6 °C 6.5 °C 1000.2 hPa South 19.3 km/h 35.4 km/h 71 % 0.0 mm
08:12 11.6 °C 6.7 °C 1000.2 hPa SSW 17.7 km/h 32.2 km/h 72 % 0.0 mm
08:17 11.6 °C 6.7 °C 1000.6 hPa SSW 16.1 km/h 32.2 km/h 72 % 0.0 mm
08:27 11.7 °C 6.6 °C 1000.6 hPa South 19.3 km/h 32.2 km/h 71 % 0.0 mm
08:32 11.8 °C 6.7 °C 1000.6 hPa SSW 22.5 km/h 35.4 km/h 71 % 0.0 mm
08:42 11.8 °C 6.7 °C 1000.6 hPa SSW 14.5 km/h 35.4 km/h 71 % 0.0 mm
08:47 11.9 °C 6.8 °C 1000.6 hPa South 19.3 km/h 35.4 km/h 71 % 0.0 mm
08:52 11.9 °C 6.8 °C 1000.6 hPa SSW 27.4 km/h 37.0 km/h 71 % 0.0 mm
08:57 11.9 °C 7.0 °C 1000.6 hPa SSW 12.9 km/h 37.0 km/h 72 % 0.0 mm
09:07 11.9 °C 6.8 °C 1000.9 hPa SSW 27.4 km/h 35.4 km/h 71 % 0.0 mm
09:12 12.1 °C 7.0 °C 1000.9 hPa SSW 20.9 km/h 37.0 km/h 71 % 0.0 mm
09:17 12.0 °C 6.9 °C 1001.2 hPa South 17.7 km/h 37.0 km/h 71 % 0.0 mm
09:22 12.0 °C 7.1 °C 1001.2 hPa SSW 33.8 km/h 33.8 km/h 72 % 0.0 mm
09:27 12.1 °C 7.0 °C 1001.2 hPa SSW 20.9 km/h 33.8 km/h 71 % 0.0 mm
09:32 12.1 °C 7.0 °C 1001.2 hPa South 25.7 km/h 37.0 km/h 71 % 0.0 mm
09:37 12.1 °C 7.0 °C 1001.2 hPa SSW 17.7 km/h 37.0 km/h 71 % 0.0 mm
09:42 12.2 °C 7.3 °C 1001.2 hPa SSW 16.1 km/h 37.0 km/h 72 % 0.0 mm
09:47 12.3 °C 7.2 °C 1001.2 hPa SSW 12.9 km/h 37.0 km/h 71 % 0.0 mm
09:57 12.3 °C 7.2 °C 1001.2 hPa SSW 17.7 km/h 37.0 km/h 71 % 0.0 mm
10:02 12.4 °C 7.3 °C 1001.2 hPa SW 16.1 km/h 32.2 km/h 71 % 0.0 mm
10:12 12.6 °C 7.3 °C 1001.2 hPa SSW 24.1 km/h 32.2 km/h 70 % 0.0 mm
10:22 12.7 °C 7.8 °C 1001.6 hPa SSW 17.7 km/h 33.8 km/h 72 % 0.0 mm
10:27 12.7 °C 7.6 °C 1001.6 hPa SSW 16.1 km/h 33.8 km/h 71 % 0.0 mm
10:32 12.8 °C 7.5 °C 1001.6 hPa SW 19.3 km/h 33.8 km/h 70 % 0.0 mm
10:42 12.9 °C 7.1 °C 1001.9 hPa SSW 14.5 km/h 33.8 km/h 68 % 0.0 mm
10:47 12.9 °C 7.6 °C 1001.9 hPa SSW 12.9 km/h 33.8 km/h 70 % 0.0 mm
10:52 13.1 °C 7.3 °C 1001.9 hPa SSW 27.4 km/h 35.4 km/h 68 % 0.0 mm
11:02 13.3 °C 7.5 °C 1001.9 hPa South 12.9 km/h 33.8 km/h 68 % 0.0 mm
11:07 13.4 °C 7.4 °C 1001.9 hPa SSW 12.9 km/h 33.8 km/h 67 % 0.0 mm
11:12 13.6 °C 7.6 °C 1001.9 hPa SSW 20.9 km/h 37.0 km/h 67 % 0.0 mm
11:17 13.7 °C 7.5 °C 1001.9 hPa South 24.1 km/h 37.0 km/h 66 % 0.0 mm
11:27 13.9 °C 7.7 °C 1001.9 hPa South 17.7 km/h 37.0 km/h 66 % 0.0 mm
11:37 13.9 °C 7.7 °C 1001.9 hPa SSW 20.9 km/h 37.0 km/h 66 % 0.0 mm
11:42 13.8 °C 8.0 °C 1002.3 hPa SW 20.9 km/h 35.4 km/h 68 % 0.0 mm
11:52 13.5 °C 8.6 °C 1002.3 hPa SSW 20.9 km/h 35.4 km/h 72 % 0.0 mm
11:57 13.4 °C 8.5 °C 1001.9 hPa SW 19.3 km/h 35.4 km/h 72 % 0.0 mm
12:02 13.4 °C 8.5 °C 1002.3 hPa SW 16.1 km/h 29.0 km/h 72 % 0.0 mm
12:07 13.7 °C 8.1 °C 1001.9 hPa SW 14.5 km/h 29.0 km/h 69 % 0.0 mm
12:17 13.8 °C 8.0 °C 1001.9 hPa SW 22.5 km/h 29.0 km/h 68 % 0.0 mm
12:22 13.8 °C 8.0 °C 1001.9 hPa SSW 17.7 km/h 32.2 km/h 68 % 0.0 mm
12:32 13.8 °C 8.0 °C 1001.9 hPa SSW 17.7 km/h 29.0 km/h 68 % 0.0 mm
12:37 13.8 °C 8.2 °C 1001.9 hPa SSW 22.5 km/h 29.0 km/h 69 % 0.0 mm
12:42 13.8 °C 8.2 °C 1001.6 hPa SW 17.7 km/h 25.7 km/h 69 % 0.0 mm
12:52 14.2 °C 8.4 °C 1001.9 hPa SW 20.9 km/h 27.4 km/h 68 % 0.0 mm
12:57 14.3 °C 8.0 °C 1001.6 hPa SSW 14.5 km/h 25.7 km/h 66 % 0.0 mm
13:02 14.4 °C 8.3 °C 1001.6 hPa SSW 8.0 km/h 25.7 km/h 67 % 0.0 mm
13:07 14.5 °C 8.4 °C 1001.6 hPa SW 19.3 km/h 25.7 km/h 67 % 0.0 mm
13:12 14.6 °C 8.3 °C 1001.6 hPa South 17.7 km/h 25.7 km/h 66 % 0.0 mm
13:17 14.7 °C 8.2 °C 1001.6 hPa SSW 16.1 km/h 29.0 km/h 65 % 0.0 mm
13:22 14.7 °C 8.4 °C 1001.6 hPa SSW 14.5 km/h 29.0 km/h 66 % 0.0 mm
13:27 14.8 °C 8.3 °C 1001.6 hPa SSW 22.5 km/h 25.7 km/h 65 % 0.0 mm
13:32 14.8 °C 8.3 °C 1001.6 hPa SW 16.1 km/h 25.7 km/h 65 % 0.0 mm
13:37 14.9 °C 8.1 °C 1001.6 hPa SSW 14.5 km/h 32.2 km/h 64 % 0.0 mm
13:42 14.9 °C 8.1 °C 1001.6 hPa South 19.3 km/h 32.2 km/h 64 % 0.0 mm
13:47 14.9 °C 8.1 °C 1001.6 hPa SSW 14.5 km/h 32.2 km/h 64 % 0.0 mm
13:52 14.9 °C 8.4 °C 1001.9 hPa SSW 20.9 km/h 32.2 km/h 65 % 0.0 mm
14:02 14.9 °C 8.1 °C 1001.9 hPa SSW 12.9 km/h 29.0 km/h 64 % 0.0 mm
14:12 15.0 °C 8.5 °C 1001.6 hPa SSW 8.0 km/h 27.4 km/h 65 % 0.0 mm
14:17 15.0 °C 8.5 °C 1001.6 hPa South 11.3 km/h 22.5 km/h 65 % 0.0 mm
14:22 15.1 °C 8.8 °C 1001.6 hPa SSW 8.0 km/h 22.5 km/h 66 % 0.0 mm
14:27 15.0 °C 8.7 °C 1001.6 hPa South 8.0 km/h 19.3 km/h 66 % 0.0 mm
14:37 15.1 °C 8.8 °C 1001.6 hPa SW 12.9 km/h 20.9 km/h 66 % 0.0 mm
14:42 15.2 °C 8.7 °C 1001.6 hPa SSW 9.7 km/h 20.9 km/h 65 % 0.0 mm
14:47 15.2 °C 8.4 °C 1001.6 hPa South 12.9 km/h 22.5 km/h 64 % 0.0 mm
14:52 15.3 °C 8.8 °C 1001.6 hPa South 9.7 km/h 22.5 km/h 65 % 0.0 mm
14:57 15.3 °C 8.5 °C 1001.2 hPa SSW 11.3 km/h 20.9 km/h 64 % 0.0 mm
15:02 15.2 °C 8.4 °C 1001.2 hPa SSW 11.3 km/h 20.9 km/h 64 % 0.0 mm
15:07 15.2 °C 8.7 °C 1001.2 hPa SSW 12.9 km/h 20.9 km/h 65 % 0.0 mm
15:22 15.1 °C 8.6 °C 1001.2 hPa SSW 17.7 km/h 19.3 km/h 65 % 0.0 mm
15:37 15.1 °C 8.3 °C 1001.2 hPa SSW 11.3 km/h 25.7 km/h 64 % 0.0 mm
15:47 14.9 °C 8.4 °C 1001.2 hPa SSW 6.4 km/h 19.3 km/h 65 % 0.0 mm
16:07 14.7 °C 8.6 °C 1001.2 hPa SE 6.4 km/h 19.3 km/h 67 % 0.0 mm
16:12 14.6 °C 9.0 °C 1001.2 hPa SE 1.6 km/h 19.3 km/h 69 % 0.0 mm
16:17 14.4 °C 9.0 °C 1001.2 hPa South 3.2 km/h 12.9 km/h 70 % 0.0 mm
16:22 14.4 °C 9.2 °C 1000.9 hPa SSE 4.8 km/h 12.9 km/h 71 % 0.0 mm
16:27 14.3 °C 9.1 °C 1000.9 hPa South 4.8 km/h 11.3 km/h 71 % 0.0 mm
16:32 14.3 °C 9.3 °C 1000.9 hPa SSE 6.4 km/h 11.3 km/h 72 % 0.0 mm
16:37 14.3 °C 9.3 °C 1000.9 hPa SSE 4.8 km/h 14.5 km/h 72 % 0.0 mm
16:42 14.3 °C 9.3 °C 1000.6 hPa SW 11.3 km/h 14.5 km/h 72 % 0.0 mm
16:47 14.2 °C 9.2 °C 1000.6 hPa SSW 4.8 km/h 16.1 km/h 72 % 0.0 mm
16:52 14.3 °C 9.1 °C 1000.6 hPa ESE 6.4 km/h 16.1 km/h 71 % 0.0 mm
16:57 14.2 °C 9.0 °C 1000.6 hPa South 4.8 km/h 19.3 km/h 71 % 0.0 mm
17:07 14.1 °C 8.9 °C 1000.6 hPa SSE 4.8 km/h 14.5 km/h 71 % 0.0 mm
17:12 14.2 °C 9.0 °C 1000.6 hPa SSW 4.8 km/h 14.5 km/h 71 % 0.0 mm
17:27 14.1 °C 9.1 °C 1000.6 hPa South 11.3 km/h 17.7 km/h 72 % 0.0 mm
17:32 14.0 °C 9.0 °C 1000.6 hPa SSE 3.2 km/h 17.7 km/h 72 % 0.0 mm
17:37 13.9 °C 8.9 °C 1000.6 hPa SSE 6.4 km/h 16.1 km/h 72 % 0.0 mm
17:42 13.9 °C 8.9 °C 1000.6 hPa South 4.8 km/h 16.1 km/h 72 % 0.0 mm
17:47 14.0 °C 9.0 °C 1000.2 hPa SSE 3.2 km/h 19.3 km/h 72 % 0.0 mm
17:57 14.1 °C 8.9 °C 1000.6 hPa South 11.3 km/h 19.3 km/h 71 % 0.0 mm
18:07 14.1 °C 8.9 °C 1000.6 hPa SSW 4.8 km/h 20.9 km/h 71 % 0.0 mm
18:17 14.0 °C 9.0 °C 1000.6 hPa ESE 11.3 km/h 20.9 km/h 72 % 0.0 mm
18:27 14.0 °C 9.0 °C 1000.6 hPa SSE 3.2 km/h 17.7 km/h 72 % 0.0 mm
18:32 14.0 °C 9.0 °C 1000.6 hPa SE 4.8 km/h 16.1 km/h 72 % 0.0 mm
18:37 14.1 °C 9.1 °C 1000.6 hPa SE 12.9 km/h 16.1 km/h 72 % 0.0 mm
18:42 14.1 °C 9.1 °C 1000.6 hPa South 8.0 km/h 17.7 km/h 72 % 0.0 mm
18:52 14.2 °C 9.2 °C 1000.6 hPa South 6.4 km/h 19.3 km/h 72 % 0.0 mm
18:57 14.2 °C 9.2 °C 1000.6 hPa SE 8.0 km/h 20.9 km/h 72 % 0.0 mm
19:02 14.3 °C 9.3 °C 1000.2 hPa SSE 12.9 km/h 20.9 km/h 72 % 0.0 mm
19:07 14.3 °C 9.3 °C 1000.2 hPa SSE 6.4 km/h 22.5 km/h 72 % 0.0 mm
19:12 14.3 °C 9.1 °C 1000.6 hPa SSW 12.9 km/h 22.5 km/h 71 % 0.0 mm
19:22 14.3 °C 9.1 °C 1000.2 hPa SSE 8.0 km/h 25.7 km/h 71 % 0.0 mm
19:27 14.3 °C 9.1 °C 1000.2 hPa South 6.4 km/h 20.9 km/h 71 % 0.0 mm
19:32 14.2 °C 9.2 °C 1000.2 hPa South 8.0 km/h 20.9 km/h 72 % 0.0 mm
19:37 14.2 °C 9.0 °C 1000.2 hPa ESE 6.4 km/h 20.9 km/h 71 % 0.0 mm
19:47 14.2 °C 9.0 °C 1000.2 hPa SSE 11.3 km/h 20.9 km/h 71 % 0.0 mm
19:57 14.2 °C 9.0 °C 1000.6 hPa SSE 6.4 km/h 20.9 km/h 71 % 0.0 mm
20:02 14.2 °C 9.0 °C 1000.6 hPa SSE 6.4 km/h 20.9 km/h 71 % 0.0 mm
20:12 13.9 °C 8.9 °C 1000.6 hPa South 9.7 km/h 20.9 km/h 72 % 0.0 mm
20:17 13.9 °C 8.9 °C 1000.6 hPa SSE 9.7 km/h 16.1 km/h 72 % 0.0 mm
20:22 13.7 °C 9.1 °C 1000.9 hPa SW 16.1 km/h 16.1 km/h 74 % 0.0 mm
20:32 13.4 °C 9.3 °C 1000.9 hPa SSE 8.0 km/h 17.7 km/h 76 % 0.0 mm
20:37 13.2 °C 9.3 °C 1001.2 hPa South 3.2 km/h 16.1 km/h 77 % 0.3 mm
20:52 12.7 °C 9.5 °C 1001.2 hPa SSW 8.0 km/h 14.5 km/h 81 % 0.5 mm
21:02 12.3 °C 9.7 °C 1001.2 hPa SSW 4.8 km/h 20.9 km/h 84 % 0.8 mm
21:07 12.1 °C 9.7 °C 1001.2 hPa SSE 8.0 km/h 19.3 km/h 85 % 1.3 mm
21:12 12.0 °C 9.7 °C 1001.2 hPa South 6.4 km/h 19.3 km/h 86 % 1.3 mm
21:17 11.9 °C 9.6 °C 1000.9 hPa SE 4.8 km/h 14.5 km/h 86 % 1.3 mm
21:27 11.8 °C 9.7 °C 1000.9 hPa SSE 1.6 km/h 11.3 km/h 87 % 1.3 mm
21:32 11.8 °C 9.9 °C 1000.9 hPa SE 4.8 km/h 11.3 km/h 88 % 1.3 mm
21:37 11.8 °C 9.7 °C 1000.9 hPa SSE 3.2 km/h 16.1 km/h 87 % 1.3 mm
21:42 11.8 °C 9.7 °C 1000.9 hPa SE 4.8 km/h 16.1 km/h 87 % 1.3 mm
21:47 11.9 °C 9.8 °C 1000.9 hPa SSE 8.0 km/h 12.9 km/h 87 % 1.0 mm
22:02 12.0 °C 9.9 °C 1000.9 hPa SE 6.4 km/h 17.7 km/h 87 % 0.5 mm
22:12 12.0 °C 10.1 °C 1000.9 hPa SE 8.0 km/h 16.1 km/h 88 % 0.3 mm
22:17 11.9 °C 10.0 °C 1000.9 hPa SE 1.6 km/h 12.9 km/h 88 % 0.3 mm
22:22 12.0 °C 10.1 °C 1000.9 hPa SE 11.3 km/h 12.9 km/h 88 % 0.3 mm
22:32 12.3 °C 10.2 °C 1001.2 hPa SSW 8.0 km/h 12.9 km/h 87 % 0.3 mm
22:37 12.2 °C 10.1 °C 1001.2 hPa SSW 6.4 km/h 16.1 km/h 87 % 0.0 mm
22:47 12.1 °C 10.0 °C 1001.2 hPa South 4.8 km/h 19.3 km/h 87 % 0.0 mm
22:52 12.1 °C 10.2 °C 1001.2 hPa SSW 6.4 km/h 19.3 km/h 88 % 0.0 mm
22:57 11.9 °C 10.1 °C 1001.2 hPa SSW 3.2 km/h 16.1 km/h 89 % 0.0 mm
23:02 11.8 °C 10.2 °C 1001.2 hPa SE 1.6 km/h 16.1 km/h 90 % 0.0 mm
23:07 11.8 °C 10.2 °C 1001.2 hPa South 9.7 km/h 11.3 km/h 90 % 0.3 mm
23:12 11.8 °C 10.2 °C 1001.2 hPa SE 1.6 km/h 11.3 km/h 90 % 0.3 mm
23:17 11.7 °C 10.3 °C 1001.2 hPa SSW 4.8 km/h 11.3 km/h 91 % 0.3 mm
23:22 11.7 °C 10.3 °C 1000.9 hPa East 12.9 km/h 12.9 km/h 91 % 0.3 mm
23:27 11.8 °C 10.2 °C 1001.2 hPa SSE 3.2 km/h 17.7 km/h 90 % 0.3 mm
23:32 11.8 °C 10.2 °C 1000.9 hPa SE 3.2 km/h 17.7 km/h 90 % 0.3 mm
23:37 11.8 °C 10.2 °C 1000.9 hPa ESE 6.4 km/h 17.7 km/h 90 % 0.5 mm
23:42 11.7 °C 10.3 °C 1000.9 hPa SE 4.8 km/h 17.7 km/h 91 % 0.5 mm
23:52 11.7 °C 10.3 °C 1000.9 hPa SE 4.8 km/h 14.5 km/h 91 % 0.8 mm
23:57 11.6 °C 10.3 °C 1000.9 hPa SSE 6.4 km/h 14.5 km/h 92 % 0.8 mm
Meteo18
Compliments of Weather Underground - 4 mb

Script developed by  Jim McMurry - jmcmurry@mwt.net Adapted for the template by  Wim van der Kuil - Leuven-Template.eu

You find our weather info also at:

European Weather Network

Weather Underground

Equipment we use:

Weather-station
Davis Vue

Weather-program
Meteohub

Weather-server
Raspberry PI 2 B+

Provider
1 and 1

Davis Vue

Meteohub

Raspberry PI 2 B+

1 and 1